• In Uzbekistan
  • List of Countries
  • For 7 days
  • Water Temperature
  • Satellite Maps
  • Weather Map
  • Weather Widgets
  • user-avatar
    Login

    Hourly Weather Zurawin

    Today, 26 April, Thursday

    Time Temperature Precipitation Wind Pressure Humidity
    00:00 +13°C° 0.2 mm 3 mps 708 mmHg 86%
    01:00 +13°C° 0.2 mm 2 mps 709 mmHg 89%
    02:00 +12°C° 0 mm 1 mps 708 mmHg 93%
    03:00 +12°C° 0 mm 1 mps 708 mmHg 93%
    04:00 +11°C° 0 mm 1 mps 709 mmHg 94%
    05:00 +11°C° 0 mm 1 mps 709 mmHg 95%
    06:00 +12°C° 0 mm 1 mps 709 mmHg 91%
    07:00 +13°C° 0 mm 1 mps 709 mmHg 87%
    08:00 +14°C° 0 mm 1 mps 710 mmHg 84%
    09:00 +14°C° 0.1 mm 1 mps 710 mmHg 81%
    10:00 +15°C° 0.1 mm 1 mps 710 mmHg 78%
    11:00 +16°C° 0.1 mm 1 mps 710 mmHg 75%
    12:00 +15°C° 0.5 mm 1 mps 710 mmHg 77%
    13:00 +15°C° 0.5 mm 1 mps 710 mmHg 79%
    14:00 +15°C° 0.5 mm 1 mps 710 mmHg 81%
    15:00 +14°C° 0.3 mm 1 mps 710 mmHg 80%
    16:00 +14°C° 0.3 mm 1 mps 710 mmHg 80%
    17:00 +14°C° 0.3 mm 1 mps 709 mmHg 79%
    18:00 +13°C° 0.1 mm 1 mps 710 mmHg 83%
    19:00 +12°C° 0.1 mm 1 mps 710 mmHg 86%
    20:00 +11°C° 0.1 mm 1 mps 710 mmHg 90%
    21:00 +11°C° 0 mm 1 mps 710 mmHg 89%
    22:00 +10°C° 0 mm 2 mps 710 mmHg 88%
    23:00 +9°C° 0 mm 2 mps 711 mmHg 87%

    Tomorrow, 27 April, Friday

    Time Temperature Precipitation Wind Pressure Humidity
    00:00 +9°C° 0 mm 2 mps 711 mmHg 87%
    01:00 +8°C° 0 mm 2 mps 711 mmHg 86%
    02:00 +7°C° 0 mm 2 mps 712 mmHg 86%
    03:00 +6°C° 0 mm 2 mps 712 mmHg 88%
    04:00 +7°C° 0 mm 1 mps 712 mmHg 89%
    05:00 +6°C° 0 mm 1 mps 712 mmHg 90%
    06:00 +6°C° 0 mm 2 mps 712 mmHg 85%
    07:00 +7°C° 0 mm 2 mps 713 mmHg 80%
    08:00 +8°C° 0 mm 2 mps 713 mmHg 75%
    09:00 +10°C° 0 mm 2 mps 714 mmHg 67%
    10:00 +12°C° 0 mm 2 mps 714 mmHg 58%
    11:00 +14°C° 0 mm 2 mps 714 mmHg 50%
    12:00 +15°C° 0 mm 1 mps 714 mmHg 46%
    13:00 +16°C° 0 mm 1 mps 714 mmHg 43%
    14:00 +18°C° 0 mm 1 mps 714 mmHg 40%
    15:00 +18°C° 0 mm 1 mps 714 mmHg 41%
    16:00 +16°C° 0 mm 1 mps 714 mmHg 42%
    17:00 +16°C° 0 mm 1 mps 713 mmHg 43%
    18:00 +14°C° 0 mm 1 mps 713 mmHg 52%
    19:00 +12°C° 0 mm 1 mps 713 mmHg 60%
    20:00 +10°C° 0 mm 1 mps 713 mmHg 69%
    21:00 +9°C° 0 mm 1 mps 713 mmHg 71%
    22:00 +8°C° 0 mm 1 mps 713 mmHg 74%
    23:00 +7°C° 0 mm 2 mps 713 mmHg 76%

    Day after tomorrow, 28 April, Saturday

    Time Temperature Precipitation Wind Pressure Humidity
    00:00 +6°C° 0 mm 2 mps 713 mmHg 77%
    01:00 +6°C° 0 mm 2 mps 713 mmHg 77%
    02:00 +7°C° 0 mm 1 mps 713 mmHg 77%
    03:00 +6°C° 0 mm 2 mps 713 mmHg 75%
    04:00 +6°C° 0 mm 2 mps 713 mmHg 73%
    05:00 +6°C° 0 mm 2 mps 712 mmHg 71%
    06:00 +8°C° 0 mm 2 mps 713 mmHg 65%
    07:00 +10°C° 0 mm 2 mps 713 mmHg 60%
    08:00 +13°C° 0 mm 2 mps 713 mmHg 55%
    09:00 +15°C° 0 mm 2 mps 713 mmHg 51%
    10:00 +17°C° 0 mm 3 mps 713 mmHg 48%
    11:00 +19°C° 0 mm 3 mps 714 mmHg 44%
    12:00 +20°C° 0 mm 3 mps 713 mmHg 44%
    13:00 +21°C° 0 mm 4 mps 713 mmHg 43%
    14:00 +22°C° 0 mm 4 mps 713 mmHg 43%
    15:00 +21°C° 0 mm 4 mps 713 mmHg 46%
    16:00 +21°C° 0 mm 3 mps 712 mmHg 50%
    17:00 +21°C° 0 mm 3 mps 712 mmHg 53%
    18:00 +19°C° 0 mm 3 mps 712 mmHg 62%
    19:00 +17°C° 0 mm 2 mps 712 mmHg 72%
    20:00 +15°C° 0 mm 2 mps 712 mmHg 81%
    21:00 +14°C° 0 mm 2 mps 712 mmHg 83%
    22:00 +14°C° 0 mm 2 mps 712 mmHg 85%
    23:00 +13°C° 0 mm 2 mps 712 mmHg 87%

    29 April, Sunday

    Time Temperature Precipitation Wind Pressure Humidity
    00:00 +13°C° 0 mm 2 mps 712 mmHg 87%
    01:00 +14°C° 0 mm 2 mps 712 mmHg 87%
    02:00 +14°C° 0 mm 2 mps 712 mmHg 87%
    03:00 +14°C° 0.1 mm 2 mps 712 mmHg 87%
    04:00 +13°C° 0.1 mm 2 mps 712 mmHg 87%
    05:00 +13°C° 0.1 mm 2 mps 712 mmHg 87%
    06:00 +15°C° 0.2 mm 2 mps 712 mmHg 83%
    07:00 +16°C° 0.2 mm 2 mps 713 mmHg 78%
    08:00 +18°C° 0.2 mm 3 mps 713 mmHg 74%
    09:00 +20°C° 0 mm 3 mps 713 mmHg 67%
    10:00 +21°C° 0 mm 3 mps 713 mmHg 60%
    11:00 +24°C° 0 mm 3 mps 713 mmHg 53%
    12:00 +25°C° 0 mm 3 mps 713 mmHg 50%
    13:00 +26°C° 0 mm 3 mps 712 mmHg 48%
    14:00 +26°C° 0 mm 3 mps 712 mmHg 45%
    15:00 +26°C° 0 mm 3 mps 712 mmHg 47%
    16:00 +26°C° 0 mm 3 mps 712 mmHg 49%
    17:00 +25°C° 0 mm 2 mps 711 mmHg 51%
    18:00 +23°C° 0 mm 2 mps 711 mmHg 61%
    19:00 +20°C° 0 mm 2 mps 711 mmHg 70%
    20:00 +18°C° 0 mm 1 mps 710 mmHg 80%
    21:00 +16°C° 0 mm 2 mps 710 mmHg 81%
    22:00 +16°C° 0 mm 2 mps 710 mmHg 82%
    23:00 +15°C° 0 mm 2 mps 710 mmHg 83%

    30 April, Monday

    Time Temperature Precipitation Wind Pressure Humidity
    00:00 +15°C° 0 mm 2 mps 710 mmHg 81%
    01:00 +15°C° 0 mm 2 mps 709 mmHg 80%
    02:00 +14°C° 0 mm 2 mps 709 mmHg 78%
    03:00 +14°C° 0 mm 2 mps 709 mmHg 78%
    04:00 +13°C° 0 mm 2 mps 709 mmHg 78%
    05:00 +13°C° 0 mm 2 mps 709 mmHg 78%
    06:00 +15°C° 0 mm 2 mps 709 mmHg 72%
    07:00 +16°C° 0 mm 3 mps 709 mmHg 66%
    08:00 +18°C° 0 mm 3 mps 710 mmHg 59%
    09:00 +19°C° 0 mm 3 mps 710 mmHg 54%
    10:00 +21°C° 0 mm 4 mps 710 mmHg 49%
    11:00 +22°C° 0 mm 4 mps 710 mmHg 44%
    12:00 +23°C° 0 mm 4 mps 710 mmHg 44%
    13:00 +23°C° 0 mm 4 mps 710 mmHg 44%
    14:00 +25°C° 0 mm 4 mps 710 mmHg 44%
    15:00 +23°C° 0 mm 4 mps 709 mmHg 47%
    16:00 +23°C° 0 mm 4 mps 709 mmHg 51%
    17:00 +22°C° 0 mm 4 mps 709 mmHg 55%
    18:00 +20°C° 0 mm 3 mps 709 mmHg 62%
    19:00 +19°C° 0 mm 2 mps 709 mmHg 70%
    20:00 +17°C° 0 mm 2 mps 709 mmHg 77%
    21:00 +16°C° 0 mm 2 mps 709 mmHg 80%
    22:00 +15°C° 0 mm 1 mps 710 mmHg 83%
    23:00 +14°C° 0 mm 1 mps 710 mmHg 85%

    1 May, Tuesday

    Time Temperature Precipitation Wind Pressure Humidity
    00:00 +14°C° 0.1 mm 1 mps 710 mmHg 87%
    01:00 +14°C° 0.1 mm 1 mps 710 mmHg 88%
    02:00 +13°C° 0.1 mm 1 mps 710 mmHg 90%
    03:00 +13°C° 0.2 mm 1 mps 710 mmHg 90%
    04:00 +13°C° 0.2 mm 1 mps 710 mmHg 91%
    05:00 +12°C° 0.2 mm 1 mps 711 mmHg 92%
    06:00 +14°C° 0 mm 1 mps 711 mmHg 88%
    07:00 +15°C° 0 mm 1 mps 711 mmHg 83%
    08:00 +18°C° 0 mm 1 mps 711 mmHg 79%
    09:00 +20°C° 0.2 mm 1 mps 712 mmHg 73%
    10:00 +21°C° 0.2 mm 1 mps 712 mmHg 66%
    11:00 +23°C° 0.2 mm 2 mps 712 mmHg 60%
    12:00 +24°C° 0.5 mm 2 mps 712 mmHg 59%
    13:00 +24°C° 0.5 mm 2 mps 711 mmHg 57%
    14:00 +25°C° 0.5 mm 2 mps 711 mmHg 56%
    15:00 +24°C° 0.4 mm 2 mps 711 mmHg 57%
    16:00 +24°C° 0.4 mm 1 mps 711 mmHg 58%
    17:00 +24°C° 0.4 mm 1 mps 710 mmHg 58%
    18:00 +22°C° 0 mm 1 mps 710 mmHg 66%
    19:00 +20°C° 0 mm 1 mps 710 mmHg 75%
    20:00 +18°C° 0 mm 1 mps 709 mmHg 83%
    21:00 +16°C° 0 mm 1 mps 709 mmHg 84%
    22:00 +16°C° 0 mm 1 mps 709 mmHg 85%
    23:00 +15°C° 0 mm 1 mps 709 mmHg 87%
    Show more